Time,TemperatureF,DewpointF,PressureIn,WindDirection,WindDirectionDegrees,WindSpeedMPH,WindSpeedGustMPH,Humidity,HourlyPrecipIn,Conditions,Clouds,dailyrainin,SoftwareType,DateUTC
2013-03-31 00:00:00,48.3,45.8,30.08,NW,321,0.0,0.0,91,0.07,,,0.00,Wunderground v.1.13,2013-03-31 04:00:00,
2013-03-31 00:01:00,48.3,45.8,30.08,NW,321,0.0,0.0,91,0.07,,,0.00,Wunderground v.1.13,2013-03-31 04:01:00,
2013-03-31 00:04:00,48.2,45.7,30.08,NW,321,0.0,0.0,91,0.08,,,0.01,Wunderground v.1.13,2013-03-31 04:04:00,
2013-03-31 00:10:00,48.3,46.1,30.08,NW,321,0.0,0.0,92,0.08,,,0.01,Wunderground v.1.13,2013-03-31 04:10:00,
2013-03-31 00:12:00,48.3,46.1,30.08,NW,321,0.0,0.0,92,0.07,,,0.01,Wunderground v.1.13,2013-03-31 04:12:00,
2013-03-31 00:18:00,48.4,46.2,30.08,NW,321,0.0,0.0,92,0.07,,,0.02,Wunderground v.1.13,2013-03-31 04:18:00,
2013-03-31 00:23:00,48.4,46.2,30.08,NW,321,0.0,0.0,92,0.07,,,0.03,Wunderground v.1.13,2013-03-31 04:23:00,
2013-03-31 00:28:00,48.5,46.3,30.07,NW,321,0.0,0.0,92,0.07,,,0.03,Wunderground v.1.13,2013-03-31 04:28:00,
2013-03-31 00:34:00,48.5,46.3,30.07,NW,321,0.0,0.0,92,0.05,,,0.04,Wunderground v.1.13,2013-03-31 04:34:00,
2013-03-31 00:39:00,48.5,46.3,30.07,NW,321,0.0,0.0,92,0.09,,,0.05,Wunderground v.1.13,2013-03-31 04:39:00,
2013-03-31 00:44:00,48.5,46.3,30.07,NW,321,0.0,0.0,92,0.09,,,0.05,Wunderground v.1.13,2013-03-31 04:44:00,
2013-03-31 00:50:00,48.4,46.2,30.06,NW,321,0.0,0.0,92,0.07,,,0.06,Wunderground v.1.13,2013-03-31 04:50:00,
2013-03-31 00:55:00,48.3,46.4,30.06,NW,321,0.0,0.0,93,0.07,,,0.06,Wunderground v.1.13,2013-03-31 04:55:00,
2013-03-31 01:00:00,48.3,46.4,30.06,NW,321,0.0,0.0,93,0.07,,,0.07,Wunderground v.1.13,2013-03-31 05:00:00,
2013-03-31 01:06:00,48.3,46.4,30.06,NW,321,0.0,0.0,93,0.10,,,0.08,Wunderground v.1.13,2013-03-31 05:06:00,
2013-03-31 01:11:00,48.3,46.4,30.06,NW,321,0.0,0.0,93,0.13,,,0.09,Wunderground v.1.13,2013-03-31 05:11:00,
2013-03-31 01:17:00,48.3,46.4,30.05,NW,321,0.0,0.0,93,0.14,,,0.11,Wunderground v.1.13,2013-03-31 05:17:00,
2013-03-31 01:22:00,48.3,46.4,30.05,NW,321,0.0,0.0,93,0.10,,,0.11,Wunderground v.1.13,2013-03-31 05:22:00,
2013-03-31 01:27:00,48.3,46.4,30.05,NW,321,0.0,0.0,93,0.10,,,0.12,Wunderground v.1.13,2013-03-31 05:27:00,
2013-03-31 01:33:00,48.4,46.8,30.05,NW,321,0.0,0.0,94,0.08,,,0.13,Wunderground v.1.13,2013-03-31 05:33:00,
2013-03-31 01:38:00,48.4,46.8,30.05,NW,321,0.0,0.0,94,0.09,,,0.14,Wunderground v.1.13,2013-03-31 05:38:00,
2013-03-31 01:44:00,48.4,46.8,30.05,NW,321,0.0,0.0,94,0.09,,,0.15,Wunderground v.1.13,2013-03-31 05:44:00,
2013-03-31 01:49:00,48.4,46.8,30.04,NW,321,0.0,0.0,94,0.10,,,0.16,Wunderground v.1.13,2013-03-31 05:49:00,
2013-03-31 01:54:00,48.5,46.9,30.04,NW,321,0.0,0.0,94,0.13,,,0.17,Wunderground v.1.13,2013-03-31 05:54:00,
2013-03-31 01:59:00,48.5,46.9,30.04,NW,321,0.0,1.0,94,0.15,,,0.18,Wunderground v.1.13,2013-03-31 05:59:00,
2013-03-31 02:04:00,48.5,46.9,30.04,NW,321,0.0,0.0,94,0.09,,,0.19,Wunderground v.1.13,2013-03-31 06:04:00,
2013-03-31 02:10:00,48.5,46.9,30.03,NW,321,1.0,1.0,94,0.10,,,0.19,Wunderground v.1.13,2013-03-31 06:10:00,
2013-03-31 02:16:00,48.5,46.9,30.03,NW,321,1.0,1.0,94,0.11,,,0.21,Wunderground v.1.13,2013-03-31 06:16:00,
2013-03-31 02:21:00,48.5,46.9,30.02,NW,321,0.0,2.0,94,0.14,,,0.22,Wunderground v.1.13,2013-03-31 06:21:00,
2013-03-31 02:27:00,48.5,46.9,30.02,North,351,2.0,3.0,94,0.12,,,0.23,Wunderground v.1.13,2013-03-31 06:27:00,
2013-03-31 02:32:00,48.4,47.0,30.02,North,355,2.0,3.0,95,0.11,,,0.24,Wunderground v.1.13,2013-03-31 06:32:00,
2013-03-31 02:38:00,48.4,47.0,30.00,North,5,2.0,4.0,95,0.09,,,0.25,Wunderground v.1.13,2013-03-31 06:38:00,
2013-03-31 02:43:00,48.3,46.9,30.00,North,11,2.0,4.0,95,0.09,,,0.25,Wunderground v.1.13,2013-03-31 06:43:00,
2013-03-31 02:49:00,48.3,46.9,30.00,North,11,1.0,2.0,95,0.07,,,0.26,Wunderground v.1.13,2013-03-31 06:49:00,
2013-03-31 02:54:00,48.3,46.9,30.00,North,11,0.0,3.0,95,0.09,,,0.27,Wunderground v.1.13,2013-03-31 06:54:00,
2013-03-31 02:59:00,48.3,46.9,29.99,North,11,0.0,0.0,95,0.11,,,0.28,Wunderground v.1.13,2013-03-31 06:59:00,
2013-03-31 03:04:00,48.3,46.9,29.99,North,11,0.0,0.0,95,0.09,,,0.28,Wunderground v.1.13,2013-03-31 07:04:00,
2013-03-31 03:09:00,48.3,46.9,29.99,North,11,0.0,0.0,95,0.05,,,0.28,Wunderground v.1.13,2013-03-31 07:09:00,
2013-03-31 03:14:00,48.4,47.0,30.00,North,11,0.0,0.0,95,0.05,,,0.29,Wunderground v.1.13,2013-03-31 07:14:00,
2013-03-31 03:19:00,48.4,47.0,29.99,North,11,0.0,0.0,95,0.05,,,0.29,Wunderground v.1.13,2013-03-31 07:19:00,
2013-03-31 03:25:00,48.4,47.0,29.99,North,11,0.0,0.0,95,0.06,,,0.30,Wunderground v.1.13,2013-03-31 07:25:00,
2013-03-31 03:31:00,48.4,47.0,29.99,North,11,0.0,0.0,95,0.06,,,0.30,Wunderground v.1.13,2013-03-31 07:31:00,
2013-03-31 03:36:00,48.4,47.0,29.99,North,11,0.0,0.0,95,0.04,,,0.31,Wunderground v.1.13,2013-03-31 07:36:00,
2013-03-31 03:42:00,48.5,47.4,29.98,North,11,0.0,0.0,96,0.04,,,0.31,Wunderground v.1.13,2013-03-31 07:42:00,
2013-03-31 03:47:00,48.5,47.4,29.98,North,11,0.0,0.0,96,0.04,,,0.31,Wunderground v.1.13,2013-03-31 07:47:00,
2013-03-31 03:53:00,48.6,47.5,29.98,North,11,0.0,0.0,96,0.04,,,0.32,Wunderground v.1.13,2013-03-31 07:53:00,
2013-03-31 03:59:00,48.6,47.5,29.98,North,11,0.0,0.0,96,0.07,,,0.33,Wunderground v.1.13,2013-03-31 07:59:00,
2013-03-31 04:05:00,48.6,47.5,29.97,North,11,0.0,0.0,96,0.07,,,0.33,Wunderground v.1.13,2013-03-31 08:05:00,
2013-03-31 04:10:00,48.6,47.5,29.97,North,11,0.0,0.0,96,0.07,,,0.34,Wunderground v.1.13,2013-03-31 08:10:00,
2013-03-31 04:15:00,48.6,47.5,29.97,North,11,0.0,0.0,96,0.07,,,0.34,Wunderground v.1.13,2013-03-31 08:15:00,
2013-03-31 04:21:00,48.6,47.5,29.97,North,11,0.0,0.0,96,0.05,,,0.35,Wunderground v.1.13,2013-03-31 08:21:00,
2013-03-31 04:27:00,48.5,47.4,29.96,North,11,0.0,0.0,96,0.05,,,0.35,Wunderground v.1.13,2013-03-31 08:27:00,
2013-03-31 04:32:00,48.5,47.4,29.96,North,11,0.0,0.0,96,0.05,,,0.36,Wunderground v.1.13,2013-03-31 08:32:00,
2013-03-31 04:38:00,48.6,47.5,29.96,North,11,0.0,0.0,96,0.07,,,0.37,Wunderground v.1.13,2013-03-31 08:38:00,
2013-03-31 04:43:00,48.6,47.5,29.96,North,11,0.0,0.0,96,0.14,,,0.38,Wunderground v.1.13,2013-03-31 08:43:00,
2013-03-31 04:48:00,48.6,47.5,29.95,North,11,0.0,0.0,96,0.09,,,0.38,Wunderground v.1.13,2013-03-31 08:48:00,
2013-03-31 04:54:00,48.7,47.6,29.95,North,11,0.0,0.0,96,0.07,,,0.39,Wunderground v.1.13,2013-03-31 08:54:00,
2013-03-31 04:59:00,48.7,47.6,29.95,North,11,0.0,0.0,96,0.06,,,0.39,Wunderground v.1.13,2013-03-31 08:59:00,
2013-03-31 05:05:00,48.7,47.6,29.95,North,11,0.0,0.0,96,0.06,,,0.40,Wunderground v.1.13,2013-03-31 09:05:00,
2013-03-31 05:10:00,48.7,47.6,29.95,North,11,0.0,0.0,96,0.06,,,0.40,Wunderground v.1.13,2013-03-31 09:10:00,
2013-03-31 05:16:00,48.7,47.6,29.95,North,11,0.0,0.0,96,0.04,,,0.40,Wunderground v.1.13,2013-03-31 09:16:00,
2013-03-31 05:21:00,48.7,47.6,29.95,North,11,0.0,0.0,96,0.00,,,0.41,Wunderground v.1.13,2013-03-31 09:21:00,
2013-03-31 05:27:00,48.6,47.5,29.95,North,11,0.0,0.0,96,0.00,,,0.41,Wunderground v.1.13,2013-03-31 09:27:00,
2013-03-31 05:32:00,48.6,47.5,29.95,North,11,0.0,0.0,96,0.00,,,0.41,Wunderground v.1.13,2013-03-31 09:32:00,
2013-03-31 05:37:00,48.6,47.5,29.95,North,11,0.0,0.0,96,0.00,,,0.41,Wunderground v.1.13,2013-03-31 09:37:00,
2013-03-31 05:43:00,48.6,47.5,29.95,North,11,0.0,0.0,96,0.00,,,0.42,Wunderground v.1.13,2013-03-31 09:43:00,
2013-03-31 05:48:00,48.6,47.5,29.95,North,11,0.0,0.0,96,0.00,,,0.42,Wunderground v.1.13,2013-03-31 09:48:00,
2013-03-31 05:53:00,48.6,47.5,29.95,North,11,0.0,0.0,96,0.00,,,0.42,Wunderground v.1.13,2013-03-31 09:53:00,
2013-03-31 05:58:00,48.6,47.5,29.94,North,11,0.0,0.0,96,0.00,,,0.42,Wunderground v.1.13,2013-03-31 09:58:00,
2013-03-31 06:03:00,48.6,47.5,29.95,North,11,0.0,0.0,96,0.00,,,0.42,Wunderground v.1.13,2013-03-31 10:03:00,
2013-03-31 06:09:00,48.6,47.5,29.95,North,11,0.0,0.0,96,0.00,,,0.43,Wunderground v.1.13,2013-03-31 10:09:00,
2013-03-31 06:15:00,48.6,47.5,29.94,North,11,0.0,0.0,96,0.00,,,0.43,Wunderground v.1.13,2013-03-31 10:15:00,
2013-03-31 06:20:00,48.6,47.5,29.94,North,11,0.0,0.0,96,0.00,,,0.43,Wunderground v.1.13,2013-03-31 10:20:00,
2013-03-31 06:25:00,48.6,47.5,29.94,North,11,0.0,0.0,96,0.00,,,0.43,Wunderground v.1.13,2013-03-31 10:25:00,
2013-03-31 06:31:00,48.6,47.5,29.94,North,11,0.0,0.0,96,0.00,,,0.43,Wunderground v.1.13,2013-03-31 10:31:00,
2013-03-31 06:36:00,48.6,47.5,29.94,North,11,0.0,0.0,96,0.00,,,0.43,Wunderground v.1.13,2013-03-31 10:36:00,
2013-03-31 06:41:00,48.6,47.5,29.94,North,11,0.0,0.0,96,0.00,,,0.43,Wunderground v.1.13,2013-03-31 10:41:00,
2013-03-31 06:46:00,48.6,47.5,29.94,North,11,0.0,0.0,96,0.00,,,0.43,Wunderground v.1.13,2013-03-31 10:46:00,
2013-03-31 06:51:00,48.6,47.5,29.95,North,11,0.0,0.0,96,0.00,,,0.43,Wunderground v.1.13,2013-03-31 10:51:00,
2013-03-31 06:57:00,48.6,47.5,29.95,North,11,0.0,0.0,96,0.00,,,0.43,Wunderground v.1.13,2013-03-31 10:57:00,
2013-03-31 07:03:00,48.7,47.6,29.95,North,11,0.0,0.0,96,0.00,,,0.43,Wunderground v.1.13,2013-03-31 11:03:00,
2013-03-31 07:09:00,48.7,47.6,29.94,North,11,0.0,0.0,96,0.00,,,0.43,Wunderground v.1.13,2013-03-31 11:09:00,
2013-03-31 07:14:00,48.7,47.6,29.94,North,11,0.0,0.0,96,0.00,,,0.43,Wunderground v.1.13,2013-03-31 11:14:00,
2013-03-31 07:19:00,48.7,47.6,29.94,North,11,0.0,0.0,96,0.00,,,0.43,Wunderground v.1.13,2013-03-31 11:19:00,
2013-03-31 07:24:00,48.7,47.6,29.94,North,11,0.0,0.0,96,0.00,,,0.43,Wunderground v.1.13,2013-03-31 11:24:00,
2013-03-31 07:30:00,48.7,47.6,29.94,North,11,0.0,0.0,96,0.00,,,0.43,Wunderground v.1.13,2013-03-31 11:30:00,
2013-03-31 07:35:00,48.7,47.6,29.95,North,11,0.0,0.0,96,0.00,,,0.43,Wunderground v.1.13,2013-03-31 11:35:00,
2013-03-31 07:41:00,48.7,47.6,29.95,North,11,0.0,0.0,96,0.00,,,0.43,Wunderground v.1.13,2013-03-31 11:41:00,
2013-03-31 07:46:00,48.7,47.6,29.95,North,11,0.0,0.0,96,0.00,,,0.43,Wunderground v.1.13,2013-03-31 11:46:00,
2013-03-31 07:51:00,48.7,47.6,29.95,North,11,0.0,0.0,96,0.00,,,0.43,Wunderground v.1.13,2013-03-31 11:51:00,
2013-03-31 07:57:00,48.7,47.6,29.95,North,11,0.0,0.0,96,0.00,,,0.43,Wunderground v.1.13,2013-03-31 11:57:00,
2013-03-31 08:03:00,48.7,47.9,29.95,North,11,0.0,0.0,97,0.00,,,0.43,Wunderground v.1.13,2013-03-31 12:03:00,
2013-03-31 08:09:00,48.9,48.1,29.95,North,11,0.0,0.0,97,0.00,,,0.43,Wunderground v.1.13,2013-03-31 12:09:00,
2013-03-31 08:15:00,49.1,48.3,29.95,North,11,0.0,0.0,97,0.00,,,0.43,Wunderground v.1.13,2013-03-31 12:15:00,
2013-03-31 08:20:00,49.2,48.4,29.95,North,11,0.0,0.0,97,0.00,,,0.43,Wunderground v.1.13,2013-03-31 12:20:00,
2013-03-31 08:26:00,49.4,48.6,29.95,North,11,0.0,0.0,97,0.00,,,0.43,Wunderground v.1.13,2013-03-31 12:26:00,
2013-03-31 08:32:00,49.7,48.9,29.95,North,11,0.0,0.0,97,0.00,,,0.43,Wunderground v.1.13,2013-03-31 12:32:00,
2013-03-31 08:38:00,50.2,49.4,29.95,North,11,1.0,3.0,97,0.00,,,0.44,Wunderground v.1.13,2013-03-31 12:38:00,
2013-03-31 08:43:00,50.9,50.1,29.95,North,355,2.0,4.0,97,0.00,,,0.44,Wunderground v.1.13,2013-03-31 12:43:00,
2013-03-31 08:48:00,51.5,50.7,29.95,NW,313,3.0,5.0,97,0.00,,,0.44,Wunderground v.1.13,2013-03-31 12:48:00,
2013-03-31 08:53:00,52.1,51.6,29.95,WNW,284,5.0,5.0,98,0.00,,,0.44,Wunderground v.1.13,2013-03-31 12:53:00,
2013-03-31 08:59:00,52.6,52.1,29.96,West,269,6.0,7.0,98,0.00,,,0.44,Wunderground v.1.13,2013-03-31 12:59:00,
2013-03-31 09:04:00,52.9,52.4,29.96,West,271,6.0,10.0,98,0.00,,,0.44,Wunderground v.1.13,2013-03-31 13:04:00,
2013-03-31 09:10:00,53.1,52.6,29.96,West,270,6.0,10.0,98,0.00,,,0.44,Wunderground v.1.13,2013-03-31 13:10:00,
2013-03-31 09:16:00,53.3,52.5,29.96,West,265,8.0,8.0,97,0.00,,,0.44,Wunderground v.1.13,2013-03-31 13:16:00,
2013-03-31 09:21:00,53.4,52.8,29.96,WSW,254,9.0,11.0,98,0.00,,,0.44,Wunderground v.1.13,2013-03-31 13:21:00,
2013-03-31 09:26:00,53.5,52.7,29.96,WSW,252,9.0,13.0,97,0.00,,,0.44,Wunderground v.1.13,2013-03-31 13:26:00,
2013-03-31 09:31:00,53.6,52.8,29.96,West,259,8.0,9.0,97,0.00,,,0.44,Wunderground v.1.13,2013-03-31 13:31:00,
2013-03-31 09:37:00,53.7,52.9,29.96,WSW,258,8.0,10.0,97,0.00,,,0.44,Wunderground v.1.13,2013-03-31 13:37:00,
2013-03-31 09:43:00,53.8,53.0,29.96,WSW,256,9.0,12.0,97,0.00,,,0.44,Wunderground v.1.13,2013-03-31 13:43:00,
2013-03-31 09:48:00,54.0,53.2,29.96,WSW,251,9.0,13.0,97,0.00,,,0.44,Wunderground v.1.13,2013-03-31 13:48:00,
2013-03-31 09:54:00,54.1,53.3,29.96,WSW,241,8.0,11.0,97,0.00,,,0.44,Wunderground v.1.13,2013-03-31 13:54:00,
2013-03-31 10:00:00,54.4,53.6,29.96,West,264,9.0,9.0,97,0.00,,,0.44,Wunderground v.1.13,2013-03-31 14:00:00,
2013-03-31 10:05:00,54.5,53.7,29.96,WSW,240,9.0,9.0,97,0.00,,,0.44,Wunderground v.1.13,2013-03-31 14:05:00,
2013-03-31 10:10:00,54.8,54.0,29.96,West,271,8.0,9.0,97,0.00,,,0.44,Wunderground v.1.13,2013-03-31 14:10:00,
2013-03-31 10:16:00,54.8,54.0,29.96,WSW,248,9.0,12.0,97,0.00,,,0.44,Wunderground v.1.13,2013-03-31 14:16:00,
2013-03-31 10:22:00,55.0,53.9,29.96,WSW,254,11.0,15.0,96,0.00,,,0.44,Wunderground v.1.13,2013-03-31 14:22:00,
2013-03-31 10:27:00,55.1,54.0,29.96,West,261,10.0,11.0,96,0.00,,,0.44,Wunderground v.1.13,2013-03-31 14:27:00,
2013-03-31 10:32:00,55.3,54.2,29.96,SW,225,10.0,12.0,96,0.00,,,0.44,Wunderground v.1.13,2013-03-31 14:32:00,
2013-03-31 10:38:00,55.5,54.1,29.96,West,261,9.0,11.0,95,0.00,,,0.44,Wunderground v.1.13,2013-03-31 14:38:00,
2013-03-31 10:44:00,55.8,54.4,29.95,West,263,8.0,12.0,95,0.00,,,0.44,Wunderground v.1.13,2013-03-31 14:44:00,
2013-03-31 10:49:00,56.0,54.3,29.95,West,275,10.0,14.0,94,0.00,,,0.44,Wunderground v.1.13,2013-03-31 14:49:00,
2013-03-31 10:55:00,56.7,55.0,29.95,West,274,11.0,12.0,94,0.00,,,0.44,Wunderground v.1.13,2013-03-31 14:55:00,
2013-03-31 11:00:00,57.1,55.1,29.95,WSW,252,11.0,17.0,93,0.00,,,0.44,Wunderground v.1.13,2013-03-31 15:00:00,
2013-03-31 11:05:00,57.3,54.7,29.95,WSW,247,11.0,12.0,91,0.00,,,0.44,Wunderground v.1.13,2013-03-31 15:05:00,
2013-03-31 11:11:00,57.6,54.7,29.95,WSW,256,11.0,12.0,90,0.00,,,0.44,Wunderground v.1.13,2013-03-31 15:11:00,
2013-03-31 11:16:00,58.1,54.9,29.95,WNW,289,10.0,12.0,89,0.00,,,0.44,Wunderground v.1.13,2013-03-31 15:16:00,
2013-03-31 11:21:00,58.4,54.9,29.95,West,273,10.0,13.0,88,0.00,,,0.44,Wunderground v.1.13,2013-03-31 15:21:00,
2013-03-31 11:27:00,58.5,54.3,29.95,WNW,292,11.0,15.0,86,0.00,,,0.44,Wunderground v.1.13,2013-03-31 15:27:00,
2013-03-31 11:32:00,58.7,54.5,29.94,West,262,11.0,14.0,86,0.00,,,0.44,Wunderground v.1.13,2013-03-31 15:32:00,
2013-03-31 11:37:00,58.7,54.2,29.95,SW,232,11.0,14.0,85,0.00,,,0.44,Wunderground v.1.13,2013-03-31 15:37:00,
2013-03-31 11:43:00,58.5,54.0,29.95,WSW,244,10.0,16.0,85,0.00,,,0.44,Wunderground v.1.13,2013-03-31 15:43:00,
2013-03-31 11:48:00,58.4,53.9,29.95,WSW,249,11.0,13.0,85,0.00,,,0.44,Wunderground v.1.13,2013-03-31 15:48:00,
2013-03-31 11:53:00,58.4,53.9,29.95,West,273,11.0,14.0,85,0.00,,,0.44,Wunderground v.1.13,2013-03-31 15:53:00,
2013-03-31 11:59:00,58.4,53.9,29.95,WSW,239,11.0,12.0,85,0.00,,,0.44,Wunderground v.1.13,2013-03-31 15:59:00,
2013-03-31 12:04:00,58.5,54.0,29.95,West,277,10.0,14.0,85,0.00,,,0.44,Wunderground v.1.13,2013-03-31 16:04:00,
2013-03-31 12:10:00,58.6,53.8,29.94,West,272,10.0,10.0,84,0.00,,,0.44,Wunderground v.1.13,2013-03-31 16:10:00,
2013-03-31 12:15:00,59.0,54.5,29.94,West,275,10.0,10.0,85,0.00,,,0.44,Wunderground v.1.13,2013-03-31 16:15:00,
2013-03-31 12:20:00,60.2,55.3,29.94,West,269,10.0,13.0,84,0.00,,,0.44,Wunderground v.1.13,2013-03-31 16:20:00,
2013-03-31 12:26:00,60.5,54.6,29.94,West,271,10.0,10.0,81,0.00,,,0.44,Wunderground v.1.13,2013-03-31 16:26:00,
2013-03-31 12:32:00,60.8,54.9,29.94,West,272,11.0,13.0,81,0.00,,,0.44,Wunderground v.1.13,2013-03-31 16:32:00,
2013-03-31 12:38:00,60.9,55.0,29.94,West,277,10.0,11.0,81,0.00,,,0.44,Wunderground v.1.13,2013-03-31 16:38:00,
2013-03-31 12:43:00,60.8,54.6,29.94,SW,234,9.0,14.0,80,0.00,,,0.44,Wunderground v.1.13,2013-03-31 16:43:00,
2013-03-31 12:49:00,60.3,54.1,29.94,WSW,248,9.0,10.0,80,0.00,,,0.44,Wunderground v.1.13,2013-03-31 16:49:00,
2013-03-31 12:54:00,60.1,54.2,29.93,WSW,243,9.0,10.0,81,0.00,,,0.44,Wunderground v.1.13,2013-03-31 16:54:00,
2013-03-31 12:59:00,59.9,54.1,29.94,West,270,9.0,14.0,81,0.00,,,0.44,Wunderground v.1.13,2013-03-31 16:59:00,
2013-03-31 13:05:00,59.5,53.7,29.94,West,259,9.0,9.0,81,0.00,,,0.44,Wunderground v.1.13,2013-03-31 17:05:00,
2013-03-31 13:10:00,59.1,53.3,29.94,SW,234,9.0,13.0,81,0.00,,,0.44,Wunderground v.1.13,2013-03-31 17:10:00,
2013-03-31 13:16:00,59.0,53.2,29.94,WSW,242,10.0,13.0,81,0.00,,,0.44,Wunderground v.1.13,2013-03-31 17:16:00,
2013-03-31 13:21:00,59.0,53.2,29.94,West,275,10.0,11.0,81,0.00,,,0.44,Wunderground v.1.13,2013-03-31 17:21:00,
2013-03-31 13:27:00,59.0,53.2,29.95,West,267,9.0,14.0,81,0.00,,,0.44,Wunderground v.1.13,2013-03-31 17:27:00,
2013-03-31 13:32:00,58.7,53.2,29.94,West,273,9.0,9.0,82,0.00,,,0.44,Wunderground v.1.13,2013-03-31 17:32:00,
2013-03-31 13:37:00,58.6,53.1,29.94,WSW,253,9.0,19.0,82,0.00,,,0.44,Wunderground v.1.13,2013-03-31 17:37:00,
2013-03-31 13:43:00,58.4,52.9,29.95,SW,225,10.0,10.0,82,0.00,,,0.44,Wunderground v.1.13,2013-03-31 17:43:00,
2013-03-31 13:49:00,58.5,53.0,29.94,WSW,257,10.0,14.0,82,0.00,,,0.44,Wunderground v.1.13,2013-03-31 17:49:00,
2013-03-31 13:54:00,58.7,53.5,29.94,West,271,9.0,13.0,83,0.00,,,0.44,Wunderground v.1.13,2013-03-31 17:54:00,
2013-03-31 13:59:00,59.0,53.8,29.94,West,265,9.0,11.0,83,0.00,,,0.44,Wunderground v.1.13,2013-03-31 17:59:00,
2013-03-31 14:04:00,59.0,53.5,29.94,WSW,254,9.0,16.0,82,0.00,,,0.44,Wunderground v.1.13,2013-03-31 18:04:00,
2013-03-31 14:10:00,59.6,53.8,29.94,West,260,8.0,9.0,81,0.00,,,0.44,Wunderground v.1.13,2013-03-31 18:10:00,
2013-03-31 14:15:00,59.7,53.9,29.94,West,272,8.0,12.0,81,0.00,,,0.44,Wunderground v.1.13,2013-03-31 18:15:00,
2013-03-31 14:20:00,59.6,53.4,29.94,West,276,10.0,10.0,80,0.00,,,0.44,Wunderground v.1.13,2013-03-31 18:20:00,
2013-03-31 14:26:00,59.2,53.4,29.94,WSW,255,11.0,11.0,81,0.00,,,0.44,Wunderground v.1.13,2013-03-31 18:26:00,
2013-03-31 14:31:00,59.0,53.2,29.93,WSW,246,11.0,12.0,81,0.00,,,0.44,Wunderground v.1.13,2013-03-31 18:31:00,
2013-03-31 14:36:00,59.0,53.2,29.94,West,269,10.0,13.0,81,0.00,,,0.44,Wunderground v.1.13,2013-03-31 18:36:00,
2013-03-31 14:41:00,58.6,53.1,29.94,West,264,10.0,11.0,82,0.00,,,0.44,Wunderground v.1.13,2013-03-31 18:41:00,
2013-03-31 14:47:00,58.4,52.9,29.94,West,277,9.0,11.0,82,0.00,,,0.44,Wunderground v.1.13,2013-03-31 18:47:00,
2013-03-31 14:53:00,58.4,53.3,29.93,West,261,9.0,10.0,83,0.00,,,0.44,Wunderground v.1.13,2013-03-31 18:53:00,
2013-03-31 14:58:00,58.9,54.1,29.92,West,260,8.0,11.0,84,0.00,,,0.44,Wunderground v.1.13,2013-03-31 18:58:00,
2013-03-31 15:03:00,59.5,54.3,29.92,West,265,8.0,8.0,83,0.00,,,0.44,Wunderground v.1.13,2013-03-31 19:03:00,
2013-03-31 15:09:00,60.3,54.4,29.93,West,275,8.0,15.0,81,0.00,,,0.44,Wunderground v.1.13,2013-03-31 19:09:00,
2013-03-31 15:14:00,60.9,54.7,29.93,West,272,9.0,12.0,80,0.00,,,0.44,Wunderground v.1.13,2013-03-31 19:14:00,
2013-03-31 15:19:00,60.8,53.9,29.93,WNW,284,10.0,12.0,78,0.00,,,0.44,Wunderground v.1.13,2013-03-31 19:19:00,
2013-03-31 15:25:00,60.5,53.6,29.92,West,275,9.0,9.0,78,0.00,,,0.44,Wunderground v.1.13,2013-03-31 19:25:00,
2013-03-31 15:31:00,60.1,53.6,29.92,West,261,7.0,8.0,79,0.00,,,0.44,Wunderground v.1.13,2013-03-31 19:31:00,
2013-03-31 15:37:00,59.8,53.3,29.92,West,277,7.0,11.0,79,0.00,,,0.44,Wunderground v.1.13,2013-03-31 19:37:00,
2013-03-31 15:43:00,59.5,53.3,29.92,West,271,7.0,12.0,80,0.00,,,0.44,Wunderground v.1.13,2013-03-31 19:43:00,
2013-03-31 15:49:00,59.3,53.5,29.92,West,275,7.0,8.0,81,0.00,,,0.44,Wunderground v.1.13,2013-03-31 19:49:00,
2013-03-31 15:54:00,59.1,53.6,29.92,West,265,6.0,12.0,82,0.00,,,0.44,Wunderground v.1.13,2013-03-31 19:54:00,
2013-03-31 16:00:00,59.0,53.8,29.91,West,273,5.0,5.0,83,0.00,,,0.44,Wunderground v.1.13,2013-03-31 20:00:00,
2013-03-31 16:05:00,59.0,54.2,29.91,West,273,3.0,3.0,84,0.00,,,0.44,Wunderground v.1.13,2013-03-31 20:05:00,
2013-03-31 16:10:00,59.0,54.5,29.92,West,273,3.0,3.0,85,0.00,,,0.44,Wunderground v.1.13,2013-03-31 20:10:00,
2013-03-31 16:16:00,58.9,54.4,29.92,WSW,257,3.0,3.0,85,0.00,,,0.45,Wunderground v.1.13,2013-03-31 20:16:00,
2013-03-31 16:22:00,58.4,54.2,29.91,West,265,5.0,5.0,86,0.00,,,0.45,Wunderground v.1.13,2013-03-31 20:22:00,
2013-03-31 16:27:00,58.2,54.3,29.91,West,261,4.0,12.0,87,0.05,,,0.46,Wunderground v.1.13,2013-03-31 20:27:00,
2013-03-31 16:32:00,57.7,54.2,29.91,WSW,252,6.0,13.0,88,0.05,,,0.46,Wunderground v.1.13,2013-03-31 20:32:00,
2013-03-31 16:38:00,57.3,53.8,29.92,SW,232,9.0,10.0,88,0.05,,,0.46,Wunderground v.1.13,2013-03-31 20:38:00,
2013-03-31 16:43:00,56.9,53.7,29.91,WSW,254,9.0,13.0,89,0.04,,,0.46,Wunderground v.1.13,2013-03-31 20:43:00,
2013-03-31 16:49:00,56.5,53.3,29.91,WSW,250,8.0,9.0,89,0.00,,,0.46,Wunderground v.1.13,2013-03-31 20:49:00,
2013-03-31 16:55:00,56.2,53.3,29.91,WSW,255,7.0,7.0,90,0.00,,,0.47,Wunderground v.1.13,2013-03-31 20:55:00,
2013-03-31 17:00:00,56.0,53.4,29.91,WSW,257,7.0,7.0,91,0.00,,,0.47,Wunderground v.1.13,2013-03-31 21:00:00,
2013-03-31 17:06:00,55.8,53.2,29.91,SW,217,6.0,6.0,91,0.00,,,0.47,Wunderground v.1.13,2013-03-31 21:06:00,
2013-03-31 17:11:00,55.7,53.1,29.91,WSW,241,6.0,6.0,91,0.00,,,0.47,Wunderground v.1.13,2013-03-31 21:11:00,
2013-03-31 17:16:00,55.7,53.4,29.91,WSW,249,6.0,6.0,92,0.00,,,0.48,Wunderground v.1.13,2013-03-31 21:16:00,
2013-03-31 17:21:00,55.7,53.4,29.92,West,266,6.0,11.0,92,0.00,,,0.48,Wunderground v.1.13,2013-03-31 21:21:00,
2013-03-31 17:26:00,55.6,53.3,29.92,West,261,7.0,7.0,92,0.00,,,0.48,Wunderground v.1.13,2013-03-31 21:26:00,
2013-03-31 17:32:00,55.6,53.3,29.92,WSW,254,6.0,13.0,92,0.00,,,0.48,Wunderground v.1.13,2013-03-31 21:32:00,
2013-03-31 17:37:00,55.5,53.2,29.92,West,264,7.0,7.0,92,0.00,,,0.48,Wunderground v.1.13,2013-03-31 21:37:00,
2013-03-31 17:43:00,55.4,53.1,29.92,West,265,6.0,7.0,92,0.00,,,0.49,Wunderground v.1.13,2013-03-31 21:43:00,
2013-03-31 17:48:00,55.3,53.3,29.92,West,265,5.0,6.0,93,0.00,,,0.49,Wunderground v.1.13,2013-03-31 21:48:00,
2013-03-31 17:53:00,55.3,53.3,29.91,West,265,3.0,4.0,93,0.17,,,0.51,Wunderground v.1.13,2013-03-31 21:53:00,
2013-03-31 17:59:00,55.3,53.3,29.91,West,265,1.0,3.0,93,0.06,,,0.51,Wunderground v.1.13,2013-03-31 21:59:00,
2013-03-31 18:05:00,55.3,53.3,29.91,West,265,0.0,0.0,93,0.04,,,0.51,Wunderground v.1.13,2013-03-31 22:05:00,
2013-03-31 18:10:00,55.4,53.7,29.91,West,265,0.0,3.0,94,0.00,,,0.51,Wunderground v.1.13,2013-03-31 22:10:00,
2013-03-31 18:16:00,55.4,53.7,29.90,West,265,0.0,0.0,94,0.00,,,0.51,Wunderground v.1.13,2013-03-31 22:16:00,
2013-03-31 18:21:00,55.4,53.7,29.91,West,265,0.0,0.0,94,0.00,,,0.51,Wunderground v.1.13,2013-03-31 22:21:00,
2013-03-31 18:27:00,55.3,53.6,29.91,West,265,1.0,4.0,94,0.00,,,0.51,Wunderground v.1.13,2013-03-31 22:27:00,
2013-03-31 18:33:00,55.3,53.6,29.91,West,265,2.0,3.0,94,0.00,,,0.51,Wunderground v.1.13,2013-03-31 22:33:00,
2013-03-31 18:39:00,55.3,53.6,29.91,West,265,1.0,3.0,94,0.00,,,0.51,Wunderground v.1.13,2013-03-31 22:39:00,
2013-03-31 18:44:00,55.3,53.6,29.91,West,265,1.0,2.0,94,0.00,,,0.51,Wunderground v.1.13,2013-03-31 22:44:00,
2013-03-31 18:50:00,55.2,53.5,29.91,West,265,0.0,0.0,94,0.00,,,0.51,Wunderground v.1.13,2013-03-31 22:50:00,
2013-03-31 18:55:00,55.1,53.4,29.91,West,265,0.0,0.0,94,0.00,,,0.51,Wunderground v.1.13,2013-03-31 22:55:00,
2013-03-31 19:01:00,55.0,53.3,29.91,West,265,0.0,0.0,94,0.00,,,0.51,Wunderground v.1.13,2013-03-31 23:01:00,
2013-03-31 19:07:00,54.9,53.2,29.91,West,265,0.0,0.0,94,0.00,,,0.52,Wunderground v.1.13,2013-03-31 23:07:00,
2013-03-31 19:12:00,54.8,53.1,29.91,West,265,0.0,0.0,94,0.00,,,0.52,Wunderground v.1.13,2013-03-31 23:12:00,
2013-03-31 19:17:00,54.8,53.1,29.91,West,265,0.0,0.0,94,0.00,,,0.52,Wunderground v.1.13,2013-03-31 23:17:00,
2013-03-31 19:22:00,54.7,53.0,29.91,West,265,0.0,0.0,94,0.00,,,0.52,Wunderground v.1.13,2013-03-31 23:22:00,
2013-03-31 19:27:00,54.7,53.0,29.91,West,265,0.0,0.0,94,0.00,,,0.52,Wunderground v.1.13,2013-03-31 23:27:00,
2013-03-31 19:32:00,54.6,52.9,29.91,West,265,0.0,1.0,94,0.00,,,0.52,Wunderground v.1.13,2013-03-31 23:32:00,
2013-03-31 19:38:00,54.5,52.8,29.91,West,265,0.0,0.0,94,0.00,,,0.52,Wunderground v.1.13,2013-03-31 23:38:00,
2013-03-31 19:43:00,54.5,52.8,29.91,West,265,0.0,0.0,94,0.00,,,0.52,Wunderground v.1.13,2013-03-31 23:43:00,
2013-03-31 19:49:00,54.4,52.7,29.91,West,265,0.0,1.0,94,0.00,,,0.52,Wunderground v.1.13,2013-03-31 23:49:00,
2013-03-31 19:55:00,54.3,52.9,29.91,West,265,0.0,0.0,95,0.00,,,0.52,Wunderground v.1.13,2013-03-31 23:55:00,
2013-03-31 20:01:00,54.3,52.6,29.91,West,265,0.0,0.0,94,0.00,,,0.52,Wunderground v.1.13,2013-04-01 00:01:00,
2013-03-31 20:07:00,54.2,52.5,29.91,West,265,0.0,0.0,94,0.00,,,0.52,Wunderground v.1.13,2013-04-01 00:07:00,
2013-03-31 20:12:00,54.2,52.8,29.91,West,265,0.0,0.0,95,0.00,,,0.52,Wunderground v.1.13,2013-04-01 00:12:00,
2013-03-31 20:18:00,54.1,52.7,29.90,West,265,0.0,0.0,95,0.00,,,0.52,Wunderground v.1.13,2013-04-01 00:18:00,
2013-03-31 20:23:00,54.1,52.7,29.91,West,265,0.0,0.0,95,0.00,,,0.52,Wunderground v.1.13,2013-04-01 00:23:00,
2013-03-31 20:28:00,54.0,52.6,29.91,West,265,0.0,0.0,95,0.00,,,0.53,Wunderground v.1.13,2013-04-01 00:28:00,
2013-03-31 20:33:00,54.0,52.6,29.91,West,265,0.0,0.0,95,0.12,,,0.54,Wunderground v.1.13,2013-04-01 00:33:00,
2013-03-31 20:38:00,53.9,52.5,29.91,West,265,0.0,0.0,95,0.16,,,0.55,Wunderground v.1.13,2013-04-01 00:38:00,
2013-03-31 20:43:00,53.8,52.4,29.91,West,265,0.0,0.0,95,0.07,,,0.55,Wunderground v.1.13,2013-04-01 00:43:00,
2013-03-31 20:48:00,53.8,52.4,29.91,West,265,0.0,0.0,95,0.06,,,0.56,Wunderground v.1.13,2013-04-01 00:48:00,
2013-03-31 20:53:00,53.7,52.3,29.91,West,265,0.0,0.0,95,0.20,,,0.58,Wunderground v.1.13,2013-04-01 00:53:00,
2013-03-31 20:58:00,53.6,52.2,29.92,West,265,0.0,0.0,95,0.09,,,0.58,Wunderground v.1.13,2013-04-01 00:58:00,
2013-03-31 21:04:00,53.4,52.0,29.92,West,265,0.0,0.0,95,0.08,,,0.59,Wunderground v.1.13,2013-04-01 01:04:00,
2013-03-31 21:10:00,53.2,51.8,29.92,West,265,0.0,0.0,95,0.05,,,0.59,Wunderground v.1.13,2013-04-01 01:10:00,
2013-03-31 21:15:00,53.1,51.7,29.92,West,265,0.0,0.0,95,0.04,,,0.59,Wunderground v.1.13,2013-04-01 01:15:00,
2013-03-31 21:20:00,53.1,51.7,29.92,West,265,0.0,0.0,95,0.00,,,0.59,Wunderground v.1.13,2013-04-01 01:20:00,
2013-03-31 21:25:00,53.0,51.6,29.92,West,265,0.0,0.0,95,0.00,,,0.59,Wunderground v.1.13,2013-04-01 01:25:00,
2013-03-31 21:30:00,53.0,51.6,29.92,West,265,0.0,0.0,95,0.00,,,0.59,Wunderground v.1.13,2013-04-01 01:30:00,
2013-03-31 21:36:00,52.9,51.5,29.92,West,265,0.0,0.0,95,0.00,,,0.59,Wunderground v.1.13,2013-04-01 01:36:00,
2013-03-31 21:41:00,52.9,51.5,29.92,West,265,0.0,0.0,95,0.00,,,0.59,Wunderground v.1.13,2013-04-01 01:41:00,
2013-03-31 21:47:00,52.8,51.4,29.92,West,265,0.0,0.0,95,0.00,,,0.59,Wunderground v.1.13,2013-04-01 01:47:00,
2013-03-31 21:52:00,52.8,51.4,29.93,West,265,0.0,0.0,95,0.00,,,0.59,Wunderground v.1.13,2013-04-01 01:52:00,
2013-03-31 21:57:00,52.7,51.3,29.93,West,265,0.0,0.0,95,0.00,,,0.59,Wunderground v.1.13,2013-04-01 01:57:00,
2013-03-31 22:02:00,52.6,51.2,29.93,West,265,0.0,0.0,95,0.00,,,0.59,Wunderground v.1.13,2013-04-01 02:02:00,
2013-03-31 22:08:00,52.5,51.1,29.93,West,265,0.0,0.0,95,0.00,,,0.59,Wunderground v.1.13,2013-04-01 02:08:00,
2013-03-31 22:13:00,52.4,51.0,29.94,West,265,0.0,0.0,95,0.00,,,0.59,Wunderground v.1.13,2013-04-01 02:13:00,
2013-03-31 22:18:00,52.3,50.9,29.94,West,265,0.0,0.0,95,0.00,,,0.59,Wunderground v.1.13,2013-04-01 02:18:00,
2013-03-31 22:24:00,52.2,50.8,29.94,West,265,0.0,0.0,95,0.00,,,0.59,Wunderground v.1.13,2013-04-01 02:24:00,
2013-03-31 22:29:00,52.0,50.6,29.94,West,265,0.0,0.0,95,0.00,,,0.59,Wunderground v.1.13,2013-04-01 02:29:00,
2013-03-31 22:35:00,51.9,50.5,29.95,West,265,0.0,0.0,95,0.00,,,0.59,Wunderground v.1.13,2013-04-01 02:35:00,
2013-03-31 22:40:00,51.8,50.4,29.94,West,265,0.0,0.0,95,0.00,,,0.59,Wunderground v.1.13,2013-04-01 02:40:00,
2013-03-31 22:45:00,51.8,50.4,29.95,West,265,0.0,0.0,95,0.00,,,0.59,Wunderground v.1.13,2013-04-01 02:45:00,
2013-03-31 22:51:00,51.6,50.2,29.94,West,265,0.0,0.0,95,0.00,,,0.59,Wunderground v.1.13,2013-04-01 02:51:00,
2013-03-31 22:57:00,51.5,50.1,29.95,West,265,0.0,0.0,95,0.00,,,0.59,Wunderground v.1.13,2013-04-01 02:57:00,
2013-03-31 23:03:00,51.5,50.1,29.95,West,265,0.0,0.0,95,0.00,,,0.59,Wunderground v.1.13,2013-04-01 03:03:00,
2013-03-31 23:09:00,51.4,50.0,29.94,West,265,0.0,0.0,95,0.00,,,0.59,Wunderground v.1.13,2013-04-01 03:09:00,
2013-03-31 23:15:00,51.3,49.9,29.94,West,265,0.0,0.0,95,0.00,,,0.59,Wunderground v.1.13,2013-04-01 03:15:00,
2013-03-31 23:20:00,51.1,49.7,29.94,West,265,0.0,0.0,95,0.00,,,0.59,Wunderground v.1.13,2013-04-01 03:20:00,
2013-03-31 23:26:00,50.9,49.5,29.95,West,265,0.0,0.0,95,0.00,,,0.59,Wunderground v.1.13,2013-04-01 03:26:00,
2013-03-31 23:32:00,50.8,49.4,29.95,West,265,0.0,0.0,95,0.00,,,0.59,Wunderground v.1.13,2013-04-01 03:32:00,
2013-03-31 23:38:00,50.7,49.3,29.95,West,265,0.0,0.0,95,0.00,,,0.59,Wunderground v.1.13,2013-04-01 03:38:00,
2013-03-31 23:44:00,50.6,49.2,29.95,West,265,0.0,0.0,95,0.00,,,0.59,Wunderground v.1.13,2013-04-01 03:44:00,
2013-03-31 23:50:00,50.4,49.0,29.96,West,265,0.0,0.0,95,0.00,,,0.59,Wunderground v.1.13,2013-04-01 03:50:00,
2013-03-31 23:56:00,50.2,48.8,29.96,West,265,0.0,0.0,95,0.00,,,0.59,Wunderground v.1.13,2013-04-01 03:56:00,